Terminal Aerodrome Forecast
Issued by NWS

Home | Current Version | Previous Version | Text Only | Print | Product List | Glossary On
Versions: 1 2 3 4 5 6 7 8 9 10 11 12 13 14
000
FTUS44 KLIX 181150
TAFHUM
TAF
KHUM 181150Z 1812/1912 00000KT 5SM -RA OVC009
     FM181600 16004KT 3SM BR BKN005
     FM181800 03004KT 3SM BR VCSH BKN008 OVC025
     FM182100 08004KT P6SM BKN010 OVC025
     FM182200 08004KT P6SM BKN008 BKN020
     FM190000 VRB03KT 1SM BR BKN003 BKN020=

USA.gov is the U.S. government's official web portal to all federal, state and local government web resources and services.